Wind_Speed
12 10 5 8 10 9 8 9 4 12 12 11 17 23 26 27 25 23 22 23 27 25 21 21 18 19 19 20 23 21 16 15 14 15 15 17 17 19 24 25 27 32 33
11 9 4 5 8 11 7 8 8 6 10 12 14 13 24 26 27 27 26 28 27 28 24 23 22 21 20 18 16 20 15 12 14 18 20 20 23 27 27 28 30 32 33
11 8 4 3 8 10 7 10 11 9 8 13 15 14 12 19 19 20 20 23 23 23 22 21 21 20 18 16 15 15 14 17 19 23 26 27 30 29 32 34 33 33 33
11 7 4 4 8 8 9 7 13 13 15 13 15 12 14 15 17 17 19 17 14 16 15 16 17 17 15 16 17 19 20 23 26 26 29 28 29 34 36 37 33 31 27
8 7 4 4 5 6 7 6 13 17 18 18 14 14 15 14 11 15 18 16 14 12 10 9 10 14 14 16 18 20 24 27 28 29 30 30 31 31 32 30 28 26 28
11 9 7 7 3 4 7 6 5 19 22 21 18 12 16 15 15 14 14 17 16 16 14 12 13 13 15 16 20 25 25 26 26 28 32 29 27 28 30 30 28 29 30
12 13 9 9 4 1 5 5 3 13 22 20 20 17 17 17 19 17 15 14 14 14 14 16 15 18 21 25 24 26 27 28 29 27 24 22 25 24 18 14 17 17 18
13 15 13 10 6 3 1 4 5 4 17 20 20 18 16 19 19 21 21 21 19 18 18 19 19 23 24 27 25 24 23 24 24 23 20 24 25 19 17 16 17 19 22
10 13 13 12 9 6 6 3 5 6 8 19 18 18 18 16 15 17 18 21 22 22 22 21 20 19 18 20 20 22 24 22 19 20 22 18 16 14 14 14 16 19 20
12 14 13 13 12 9 11 8 6 6 7 9 11 13 14 16 16 16 15 15 15 16 16 15 14 15 20 19 19 17 15 16 19 19 15 12 11 12 14 16 21 22 22
18 15 13 12 15 12 13 13 9 8 8 9 9 9 8 10 12 12 12 11 12 13 10 12 14 9 8 10 12 13 13 13 12 10 11 11 14 19 22 25 26 27 29
22 19 13 11 17 16 15 16 17 13 11 9 9 9 7 8 9 9 8 8 7 7 8 8 7 4 5 7 6 6 7 8 10 14 16 19 23 25 27 30 31 30 33
21 22 15 12 14 18 18 17 20 19 16 14 13 11 9 8 8 6 6 5 4 4 4 7 8 9 9 10 12 14 13 16 18 21 23 26 28 30 32 33 35 38 40
25 24 20 18 17 19 16 18 20 21 20 18 17 16 15 14 13 12 11 10 9 9 8 9 12 14 16 16 17 18 21 22 24 26 28 30 30 32 36 40 42 43 44
29 28 25 24 24 20 23 21 21 25 25 21 18 18 18 18 19 17 16 15 14 14 15 17 19 20 21 22 24 25 26 28 29 31 34 36 37 38 41 43 43 46 48
36 34 31 30 28 26 25 24 24 25 29 27 26 22 21 21 21 21 20 20 20 20 22 23 24 25 26 28 29 31 32 34 36 38 39 41 44 44 46 48 50 51 54
40 39 33 32 32 33 29 28 29 29 31 30 30 31 28 26 24 23 22 22 22 23 24 25 27 28 30 31 34 35 37 38 40 42 44 45 46 48 51 53 54 56 58
45 45 40 41 38 36 35 34 32 33 35 36 38 36 31 28 26 27 28 28 28 27 27 29 31 32 32 33 34 36 39 40 42 43 46 47 48 49 52 54 56 57 60
49 47 49 44 45 43 42 37 37 38 37 37 39 38 38 37 33 30 28 27 26 26 29 33 36 36 37 39 39 40 41 43 45 48 50 51 53 56 59 60 61 62 63
49 51 53 52 49 47 46 43 39 43 44 42 43 39 38 35 35 36 36 37 34 33 35 33 33 33 35 38 41 44 45 48 50 52 54 56 58 60 61 64 65 66 67
60 55 56 56 58 53 52 54 46 48 51 45 40 41 41 39 38 37 36 37 37 39 40 39 40 43 43 43 45 47 50 49 52 54 55 57 58 60 64 67 69 71 72
63 65 60 58 58 57 55 57 60 51 50 48 45 42 41 39 40 42 45 44 42 42 41 42 43 45 46 47 48 49 50 53 54 54 56 59 62 62 64 66 66 68 68
69 63 65 65 63 59 55 53 54 49 54 50 47 49 47 51 51 49 50 51 50 47 44 42 41 41 45 48 51 54 55 57 58 60 61 64 64 64 66 65 68 69 71
74 68 68 64 64 62 57 54 53 52 56 59 56 57 58 61 63 62 61 56 52 49 48 48 49 52 55 58 60 61 61 62 62 64 67 69 70 68 67 70 71 73 75
73 73 75 72 66 64 62 63 63 63 61 63 65 67 70 71 73 72 70 63 58 55 54 55 57 58 61 63 64 65 65 65 66 67 69 71 71 72 74 75 76 77 80
82 79 75 75 72 71 70 67 68 67 67 67 68 71 77 78 76 78 75 73 69 65 61 61 64 66 68 68 68 68 69 69 69 70 71 74 75 77 80 82 80 82 83
Wind_Direction
291 287 354 28 46 84 159 196 148 164 157 133 121 110 110 114 120 120 122 130 141 140 140 140 145 154 159 165 175 185 192 210 223 224 245 253 269 289 300 293 296 303 307
284 278 331 45 46 63 150 169 165 195 191 165 152 140 122 124 129 135 142 137 140 146 148 149 164 161 164 168 180 199 208 218 236 246 257 280 282 283 293 300 303 302 306
274 273 302 12 55 66 82 173 176 181 200 187 156 160 148 136 136 140 144 144 143 142 149 153 168 174 182 184 195 209 230 253 258 267 274 282 287 293 297 302 301 302 301
268 272 302 348 60 58 68 153 189 195 189 202 184 196 177 163 152 147 148 146 150 158 159 170 179 187 197 211 220 232 240 253 261 271 280 288 296 293 294 296 297 300 304
266 265 299 336 46 55 67 80 194 198 192 178 198 202 197 179 188 175 172 171 173 180 182 196 214 223 228 244 250 257 258 264 270 277 283 291 293 293 295 293 299 300 297
270 269 279 303 31 45 57 58 165 195 197 197 198 204 200 212 204 205 192 188 196 200 205 213 228 231 244 255 260 258 259 264 278 286 290 291 299 297 298 293 285 290 291
265 261 272 285 313 45 64 70 79 190 197 201 205 203 206 207 219 215 222 226 229 226 240 251 243 236 246 255 259 261 269 279 279 281 286 294 296 298 314 317 294 301 306
253 262 258 273 279 257 162 98 92 137 200 202 200 196 207 217 220 219 224 231 229 240 246 258 263 273 267 268 266 274 270 271 273 279 283 286 290 292 309 320 317 310 303
262 248 263 265 265 247 217 166 114 109 155 198 204 194 206 208 214 228 235 227 235 240 243 251 260 265 263 261 263 271 273 266 274 278 285 285 292 313 314 317 317 318 316
256 249 255 260 255 240 233 205 154 128 119 150 191 203 211 217 225 228 230 234 233 240 249 253 262 275 276 272 276 272 275 273 278 278 281 296 314 318 310 315 317 316 315
240 249 253 262 248 245 230 225 199 174 151 150 153 163 180 206 216 222 225 226 229 235 240 261 263 255 266 268 270 272 274 277 284 288 298 299 303 302 308 310 309 311 307
231 235 242 258 247 247 241 231 228 218 201 188 176 171 165 173 181 181 177 183 194 209 219 228 222 221 258 258 257 297 315 313 305 298 292 294 297 300 301 299 299 302 302
240 241 232 252 261 253 249 244 234 233 225 221 219 218 213 210 210 203 192 185 188 198 203 213 248 273 279 287 293 301 298 292 297 300 299 301 299 297 298 296 300 303 303
234 230 236 232 248 256 250 259 245 235 232 235 235 237 237 239 237 233 234 238 247 265 274 277 278 286 294 297 297 297 298 301 301 297 299 300 297 294 296 296 297 298 301
233 226 235 228 220 232 260 266 268 252 247 245 242 244 246 248 252 254 257 257 259 263 267 273 279 284 289 292 294 295 296 296 296 297 297 298 297 297 298 299 298 301 301
232 220 233 231 225 228 256 271 271 269 259 256 253 246 245 247 249 254 258 261 265 269 272 274 278 281 285 288 289 290 291 291 291 292 293 295 297 300 302 302 303 302 301
235 225 220 229 234 237 245 255 269 274 271 260 255 254 246 246 248 248 253 260 264 267 271 274 279 283 285 286 287 288 288 289 291 292 295 296 297 299 301 301 297 295 296
234 223 228 224 227 236 243 245 252 269 272 267 269 262 260 260 256 258 259 262 266 269 275 278 280 282 283 284 285 287 289 289 288 290 291 292 293 295 295 293 292 291 290
229 229 234 234 229 235 238 243 250 255 264 267 271 269 268 268 267 265 268 273 277 278 280 279 279 279 281 282 283 285 287 287 286 287 287 288 290 294 295 293 292 293 294
231 233 236 233 234 235 239 243 246 251 260 264 264 263 265 267 270 272 273 275 275 275 279 280 283 286 287 286 287 286 287 287 287 289 292 293 296 296 295 295 295 296 297
240 239 236 240 239 242 244 241 251 259 256 258 259 264 266 267 268 269 273 276 277 277 276 282 285 285 292 294 295 295 296 297 297 298 297 298 298 299 299 297 294 295 296
243 241 242 241 244 245 246 249 252 256 254 252 258 262 262 271 274 277 277 277 276 278 280 283 287 290 294 296 297 299 297 298 298 299 298 299 300 300 298 299 297 297 296
240 249 248 248 252 252 253 254 254 251 251 252 257 257 261 269 275 281 287 280 277 278 281 286 290 293 299 300 301 300 297 296 295 296 298 300 299 299 299 300 298 298 298
238 241 245 250 252 254 255 250 247 250 248 252 255 257 260 267 275 279 287 287 282 279 284 287 292 294 297 300 299 299 296 294 293 294 296 297 299 303 303 303 303 302 300
239 241 243 249 251 253 255 255 253 253 255 257 258 259 261 267 274 278 284 285 284 281 283 287 292 294 296 295 295 294 295 296 297 298 297 300 301 301 303 305 303 301 300
236 239 245 249 249 250 252 252 252 256 260 263 267 267 265 267 272 276 282 283 288 287 286 285 289 292 293 293 294 294 296 297 298 298 298 299 302 302 303 304 301 302 302
Height
10863 10861 10858 10854 10851 10850 10849 10849 10852 10855 10857 10859 10861 10859 10859 10859 10861 10863 10865 10867 10871 10874 10876 10875 10878 10881 10883 10886 10888 10890 10891 10894 10895 10896 10896 10896 10895 10894 10893 10893 10891 10889 10887
10862 10860 10857 10854 10851 10849 10849 10850 10853 10855 10858 10860 10862 10862 10861 10863 10864 10866 10866 10868 10871 10874 10874 10876 10880 10882 10883 10885 10887 10889 10890 10892 10893 10893 10893 10893 10892 10891 10890 10888 10885 10884 10882
10860 10858 10856 10854 10850 10849 10849 10850 10853 10855 10858 10860 10862 10863 10863 10864 10866 10866 10869 10870 10872 10874 10877 10879 10881 10883 10884 10886 10888 10889 10890 10891 10890 10891 10890 10889 10887 10886 10884 10882 10881 10879 10877
10858 10856 10854 10853 10849 10849 10849 10849 10852 10854 10857 10859 10861 10863 10863 10864 10865 10866 10869 10872 10874 10875 10877 10879 10881 10883 10884 10886 10887 10887 10887 10887 10887 10887 10885 10885 10884 10882 10880 10878 10875 10873 10873
10856 10855 10853 10852 10850 10849 10848 10849 10851 10853 10854 10857 10860 10861 10862 10863 10865 10867 10868 10870 10872 10874 10876 10878 10879 10880 10882 10883 10884 10884 10885 10884 10884 10883 10882 10880 10880 10878 10874 10872 10871 10871 10870
10854 10853 10852 10852 10850 10849 10849 10848 10849 10851 10852 10854 10856 10859 10861 10863 10863 10865 10867 10868 10870 10872 10874 10876 10877 10878 10880 10881 10880 10880 10880 10880 10880 10879 10878 10877 10874 10871 10871 10869 10868 10867 10865
10852 10852 10852 10852 10850 10849 10849 10850 10849 10849 10850 10851 10854 10856 10858 10860 10862 10864 10865 10866 10868 10870 10872 10874 10875 10876 10876 10876 10876 10876 10877 10877 10876 10875 10874 10872 10870 10869 10866 10864 10863 10862 10860
10849 10851 10850 10850 10850 10848 10849 10850 10850 10850 10850 10850 10853 10855 10857 10859 10861 10862 10863 10865 10867 10868 10869 10870 10871 10872 10872 10871 10872 10873 10872 10872 10871 10870 10869 10867 10866 10865 10863 10860 10858 10857 10855
10847 10849 10849 10849 10849 10849 10849 10849 10850 10850 10849 10851 10852 10854 10855 10857 10858 10859 10860 10862 10864 10865 10866 10868 10868 10868 10868 10867 10867 10868 10867 10867 10866 10865 10864 10863 10862 10861 10858 10857 10855 10854 10851
10844 10846 10847 10848 10848 10849 10850 10850 10849 10850 10850 10850 10850 10852 10853 10854 10856 10857 10858 10859 10860 10861 10862 10863 10865 10865 10863 10863 10863 10863 10863 10864 10863 10862 10861 10860 10859 10857 10855 10853 10851 10850 10847
10838 10842 10843 10845 10846 10848 10848 10849 10850 10851 10851 10851 10851 10851 10852 10853 10853 10854 10855 10856 10857 10857 10858 10860 10860 10860 10859 10859 10859 10860 10860 10860 10859 10859 10858 10857 10855 10853 10851 10849 10847 10845 10842
10834 10837 10840 10842 10844 10846 10848 10848 10848 10849 10850 10851 10851 10852 10852 10852 10852 10852 10853 10854 10854 10854 10856 10857 10857 10858 10858 10857 10858 10857 10857 10857 10856 10855 10854 10852 10850 10848 10846 10843 10841 10839 10837
10830 10832 10835 10837 10840 10842 10845 10846 10846 10847 10846 10848 10848 10850 10851 10850 10851 10852 10852 10853 10853 10853 10854 10854 10855 10855 10855 10854 10854 10854 10854 10854 10852 10850 10849 10848 10846 10844 10842 10838 10835 10832 10829
10823 10826 10829 10831 10834 10837 10840 10843 10844 10844 10844 10844 10845 10845 10847 10848 10848 10849 10850 10851 10852 10852 10852 10852 10852 10851 10851 10852 10851 10850 10849 10848 10847 10846 10843 10842 10841 10839 10834 10830 10828 10825 10821
10816 10819 10822 10824 10827 10830 10833 10836 10838 10841 10840 10840 10841 10841 10841 10842 10844 10845 10846 10847 10847 10847 10847 10847 10846 10846 10846 10846 10846 10845 10844 10842 10841 10839 10837 10835 10833 10831 10827 10824 10821 10816 10811
10809 10811 10815 10818 10820 10822 10826 10829 10832 10835 10837 10836 10837 10837 10837 10838 10839 10840 10842 10843 10843 10843 10842 10842 10841 10841 10840 10840 10840 10839 10838 10836 10834 10831 10829 10827 10824 10821 10818 10814 10810 10806 10800
10803 10805 10808 10811 10814 10816 10819 10821 10824 10826 10829 10832 10833 10834 10833 10834 10835 10835 10836 10838 10838 10838 10837 10836 10836 10836 10836 10835 10833 10832 10830 10829 10826 10824 10821 10818 10815 10813 10809 10805 10801 10797 10791
10793 10797 10801 10803 10805 10809 10811 10814 10816 10818 10821 10823 10825 10827 10828 10829 10829 10830 10831 10831 10833 10833 10832 10831 10830 10829 10829 10828 10827 10825 10823 10821 10818 10815 10813 10811 10808 10806 10802 10798 10793 10788 10783
10784 10789 10792 10795 10798 10800 10802 10805 10808 10810 10813 10815 10817 10818 10819 10820 10821 10823 10824 10824 10825 10825 10825 10824 10823 10822 10821 10820 10819 10818 10816 10813 10810 10807 10804 10801 10798 10794 10789 10785 10781 10777 10772
10775 10779 10782 10787 10789 10792 10794 10797 10799 10803 10804 10807 10810 10811 10812 10813 10814 10815 10816 10818 10819 10819 10818 10817 10816 10814 10813 10812 10811 10809 10806 10803 10800 10796 10793 10789 10785 10780 10775 10770 10766 10762 10757
10765 10769 10773 10776 10781 10783 10785 10788 10790 10793 10795 10798 10801 10803 10804 10805 10806 10807 10808 10809 10809 10809 10809 10808 10807 10806 10803 10801 10800 10797 10795 10792 10788 10785 10781 10777 10773 10769 10764 10760 10754 10749 10744
10749 10755 10762 10765 10769 10774 10777 10780 10783 10786 10787 10789 10793 10794 10795 10796 10797 10798 10800 10800 10799 10799 10799 10798 10797 10796 10795 10792 10790 10788 10785 10783 10779 10775 10772 10768 10764 10760 10755 10750 10744 10737 10731
10734 10742 10747 10750 10756 10763 10768 10771 10773 10776 10781 10782 10783 10784 10785 10785 10786 10788 10789 10790 10790 10790 10789 10788 10787 10787 10785 10783 10781 10778 10775 10772 10768 10765 10761 10757 10753 10748 10742 10738 10732 10725 10718
10722 10730 10734 10740 10745 10751 10759 10760 10763 10766 10769 10772 10772 10772 10774 10774 10773 10774 10776 10778 10779 10780 10779 10778 10776 10775 10774 10771 10769 10767 10764 10761 10757 10753 10748 10744 10739 10734 10729 10722 10717 10710 10703
10708 10714 10721 10727 10735 10738 10742 10746 10750 10753 10758 10760 10760 10762 10763 10762 10761 10762 10762 10765 10768 10768 10767 10766 10764 10763 10761 10759 10757 10754 10752 10749 10744 10740 10734 10730 10724 10719 10713 10707 10701 10694 10686
10696 10702 10704 10710 10719 10725 10728 10732 10736 10742 10746 10748 10748 10749 10750 10749 10748 10748 10749 10751 10754 10755 10756 10754 10752 10750 10748 10746 10744 10741 10737 10733 10729 10725 10720 10714 10709 10702 10696 10690 10683 10677 10669